TimeEST,TemperatureF,Dew PointF,Humidity,Sea Level PressureIn,VisibilityMPH,Wind Direction,Wind SpeedMPH,Gust SpeedMPH,PrecipitationIn,Events,Conditions,WindDirDegrees,DateUTC
12:53 AM,30.0,3.0,32,30.21,10.0,Calm,Calm,-,N/A,,Partly Cloudy,0,2013-01-23 05:53:00
1:53 AM,30.9,5.0,33,30.22,10.0,Variable,6.9,-,N/A,,Scattered Clouds,0,2013-01-23 06:53:00
2:53 AM,30.9,5.0,33,30.23,10.0,West,11.5,19.6,N/A,,Overcast,280,2013-01-23 07:53:00
3:53 AM,30.9,5.0,33,30.24,10.0,NW,5.8,-,N/A,,Overcast,310,2013-01-23 08:53:00
4:53 AM,30.0,5.0,35,30.24,10.0,NW,3.5,-,N/A,,Overcast,310,2013-01-23 09:53:00
5:53 AM,28.9,8.1,41,30.26,10.0,Variable,3.5,-,N/A,,Overcast,0,2013-01-23 10:53:00
6:53 AM,28.9,10.0,45,30.27,10.0,North,3.5,-,N/A,,Overcast,10,2013-01-23 11:53:00
7:53 AM,28.9,10.9,47,30.28,10.0,Calm,Calm,-,N/A,,Overcast,0,2013-01-23 12:53:00
8:53 AM,30.0,10.0,43,30.28,10.0,Calm,Calm,-,N/A,,Overcast,0,2013-01-23 13:53:00
9:53 AM,35.1,12.9,40,30.28,10.0,West,5.8,-,N/A,,Partly Cloudy,270,2013-01-23 14:53:00
10:53 AM,39.0,15.1,38,30.28,10.0,West,10.4,18.4,N/A,,Mostly Cloudy,280,2013-01-23 15:53:00
11:53 AM,39.0,12.9,34,30.26,10.0,SSW,10.4,-,N/A,,Clear,200,2013-01-23 16:53:00
12:53 PM,39.9,12.0,32,30.20,10.0,Calm,Calm,-,N/A,,Clear,0,2013-01-23 17:53:00
1:53 PM,43.0,15.1,32,30.16,10.0,Variable,5.8,-,N/A,,Clear,0,2013-01-23 18:53:00
2:53 PM,46.0,17.1,31,30.15,10.0,West,8.1,-,N/A,,Clear,270,2013-01-23 19:53:00
3:53 PM,45.0,16.0,31,30.13,10.0,WSW,4.6,-,N/A,,Clear,240,2013-01-23 20:53:00
4:53 PM,44.1,17.1,34,30.12,10.0,SSW,8.1,-,N/A,,Clear,200,2013-01-23 21:53:00
5:53 PM,42.1,17.1,37,30.12,10.0,SSW,6.9,-,N/A,,Clear,200,2013-01-23 22:53:00
6:53 PM,39.9,18.0,41,30.10,10.0,South,4.6,-,N/A,,Clear,190,2013-01-23 23:53:00
7:53 PM,37.9,19.0,47,30.08,10.0,South,5.8,-,N/A,,Clear,190,2013-01-24 00:53:00
8:53 PM,37.0,18.0,46,30.08,10.0,Calm,Calm,-,N/A,,Clear,0,2013-01-24 01:53:00
10:53 PM,33.1,19.9,59,30.02,10.0,South,4.6,-,N/A,,Clear,180,2013-01-24 03:53:00
11:53 PM,33.1,21.0,61,30.00,10.0,SSW,4.6,-,N/A,,Clear,200,2013-01-24 04:53:00